星链-5348 (STARLINK-5348 )

导读 | 星芒AI

STARLINK-5348 是 SpaceX Starlink 卫星互联网项目中的一颗低轨卫星,属于第二批部署的星链卫星群。该卫星于2022年发射,运行在约550公里高度的近地轨道,旨在为全球用户提供高速互联网服务。Starlink 项目致力于构建覆盖全球的卫星通信网络,特别关注偏远地区网络接入问题。STARLINK-5348 采用先进推进系统和激光通信技术,具备高效数据传输和自主避障能力,是实现全球宽带覆盖的重要组成部分。

基本信息
目录编号:
56515
目录名称:
STARLINK-5348
国际标识:
2023-065N
轨道中心:
EARTH
卫星名称:
星链-5348
卫星全名:
星链-5348 (STARLINK-5348 )
卫星状态:
在轨 (已飞行952 天)
发射日期:
2023-05-14 UTC
国别 :
美国 (US)
星等 :
--
轨道信息
数据来源 国际轨道数据 AOE轨道数据
星历时间 2025-12-21T10:36:50+0800
10小时前
查看轨道信息
2025-12-17T21:00:00+0800
4天前
查看轨道信息
半长轴 6937.227km 6937.113km
偏心率 0.0001021 0.000163
轨道倾角 43.004° 43.003°
近地点辐角 262.122° 271.306°
升交点赤经 277.368° 296.754°
平近点角 97.951° 210.989°
近地点 558.381km 557.847km
远地点 559.799km 560.109km
周期 95.838分钟 95.836分钟
每日圈数 15.025329 15.025697
详细信息
固有亮度:
5
最大亮度:
2.5
卫星平台:
Starlink v1.5
覆盖范围:
全球
运营商:
太空探索技术公司
运营商所在国:
美国
制造商(研发单位):
太空探索技术公司
制造商所在国:
美国
使用方式:
暂无
卫星简介
星链(Starlink)计划是由太空探索技术公司(SpaceX)提出的一个巨型低轨卫星互联网星座项目,计划在2019年至2024年间在太空搭建由约1.2万颗卫星组成的“星链”网络,其中1584颗将部署在地球上空550千米处的近地轨道,并从2020年开始工作。该卫星仍在工作。
2D轨道图
3D轨道图
轨道高度分析图
轨道倾角分析图
轨道综合分析图
查看轨道综合分析图